Regional Weather Roundup
Issued by NWS

Home | Current Version | Previous Version | Text Only | Print | Product List | Glossary On
Versions: 1 2 3 4 5 6 7 8 9 10 11 12 13 14 15 16 17 18 19 20 21 22 23 24 25 26 27 28 29 30 31 32 33 34 35 36 37 38 39 40 41 42 43 44 45 46 47 48 49 50
000
ASUS43 KDTX 182010
RWRMI
MICHIGAN HOURLY REGIONAL WEATHER ROUNDUP
NATIONAL WEATHER SERVICE DETROIT/PONTIAC MI
300 PM EST THU DEC 18 2014

NOTE: "FAIR" INDICATES FEW OR NO CLOUDS BELOW 12,000 FEET WITH NO
SIGNIFICANT WEATHER AND/OR OBSTRUCTION TO VISIBILITY.

MIZ047>049-052>055-059>063-066>070-074>076-081>083-182100-
SOUTHEAST LOWER MICHIGAN

CITY           SKY/WX    TMP DP  RH WIND       PRES   REMARKS
ADRIAN         CLOUDY    31  25  78 NW7       30.17F
ALMA           CLOUDY    30  26  85 NW6       30.16S
ANN ARBOR      CLOUDY    32  27  81 W9        30.15F
BAD AXE        CLOUDY    26  23  88 NW9       30.15F
DETROIT CITY   CLOUDY    34  26  72 W6        30.15F
DETROIT        FLURRIES  33  26  75 W7        30.16F
FLINT          CLOUDY    32  28  85 NW7       30.15S
GROSSE ILE     CLOUDY    34  28  80 W6        30.15S
HILLSDALE      CLOUDY    30  27  90 W9        30.15S
HOWELL         CLOUDY    31  29  92 NW7       30.14S

CITY           SKY/WX    TMP DP  RH WIND       PRES   REMARKS
JACKSON        CLOUDY    30  27  88 W7        30.15S
LAMBERTVILLE   CLOUDY    32  28  86 W8        30.18S
LANSING        FRZ RAIN  31  29  92 W6        30.16S FOG
LAPEER         NOT AVBL
MASON          CLOUDY    30  28  92 W8        30.15S FOG
MONROE         CLOUDY    32  27  80 W7        30.16R
MT. CLEMENS    FLURRIES  30  30 100 N7        30.12F
PONTIAC        CLOUDY    31  27  85 NW7       30.12S
PORT HOPE        N/A     27  21  78 W7        30.15R
PORT HURON     CLOUDY    30  25  80 NW6       30.15S
TRI CITIES     CLOUDY    30  23  75 N8        30.17S
$$
MIZ043>046-050>051-056>058-064>065-071>073-077>080-182100-
SOUTHWEST LOWER MICHIGAN

CITY           SKY/WX    TMP DP  RH WIND       PRES   REMARKS
BATTLE CREEK   CLOUDY    30  26  85 W8        30.17S FOG
BENTON HARBOR  CLOUDY    28  23  81 W8        30.21F
BIG RAPIDS     CLOUDY    28  26  92 NW6       30.15S
COLDWATER      CLOUDY    28  25  87 W8        30.17F
HOLLAND        LGT SNOW  33  29  85 W12       30.18S VSB 1
GRAND RAPIDS   CLOUDY    32  28  85 SW8       30.16F
KALAMAZOO      CLOUDY    30  24  78 W12       30.18F
MARSHALL       CLOUDY    29  26  85 W7        30.16S
MUSKEGON       LGT SNOW  33  28  81 W3        30.17F
$$
MIZ016>042-182100-
NORTHERN LOWER MICHIGAN

CITY           SKY/WX    TMP DP  RH WIND       PRES   REMARKS
ALPENA         CLOUDY    24  19  81 N9        30.18F
BEAVER ISLAND  SUNNY     25  13  62 N9        30.22F
BELLAIRE       SUNNY     28  19  71 NE3       30.20S
CADILLAC       PTSUNNY   26  19  77 N7        30.13S
CHARLEVOIX     SUNNY     24  18  75 N9        30.23S
FRANKFORT      CLEAR     29  22  75 N7        30.20S
GAYLORD        SUNNY     24  16  71 NE6       30.14S
GRAYLING       MOSUNNY   28  21  73 CALM      30.15S
HARBOR SPRINGS SUNNY     25  14  63 NW7       30.20S
HOUGHTON LAKE  CLOUDY    26  20  77 NW5       30.14F
MANISTEE       PTSUNNY   28  19  69 E3        30.20S
OSCODA         CLOUDY    26  20  79 N6        30.17R
PELLSTON       SUNNY     22  12  65 N8        30.21F
TRAVERSE CITY  PTSUNNY   28  21  75 N6        30.19R
$$
MIZ007>008-015-182100-
EASTERN UPPER MICHIGAN

CITY           SKY/WX    TMP DP  RH WIND       PRES   REMARKS
KINROSS        SUNNY     23  12  63 N8        30.20S
MACKINAC ISLAN SUNNY     24  11  57 N6        30.21S
NEWBERRY       SUNNY     24  17  76 N8        30.21S
S. S. MARIE    SUNNY     26   7  44 N7        30.20S
$$
MIZ004>006-011>014-085-182100-
CENTRAL UPPER MICHIGAN

CITY           SKY/WX    TMP DP  RH WIND       PRES   REMARKS
MANISTIQUE     SUNNY     27  17  66 N7        30.22F
ESCANABA       SUNNY     28  12  50 E6        30.23S
MENOMINEE      SUNNY     28  18  64 E7        30.23S
SAWYER-GWINN   MOSUNNY   25  18  74 NE8       30.21F
$$
MIZ001>003-009>011-084-182100-
WESTERN UPPER MICHIGAN

CITY           SKY/WX    TMP DP  RH WIND       PRES   REMARKS
IRON MOUNTAIN  SUNNY     28  15  58 NE5       30.20F
HOUGHTON       SUNNY     27  17  66 CALM      30.24S
COPPER HARBOR    N/A     30  18  60 E6        30.26F
IRONWOOD       SUNNY     25  16  68 CALM      30.20F
$$

ABBREVIATIONS USED IN REMARKS
   TC - TEMPERATURE IN CELSIUS
  WCI - WIND CHILL INDEX
   HX - HEAT INDEX
  VSB - VISIBILITY




USA.gov is the U.S. government's official web portal to all federal, state and local government web resources and services.